C/2024 G1 ( Wierzchos )

Japanese version
Home page
Updated on September 4, 2024

---------------------------------------------------------------------

* Profile

Discovery Date April 7, 2024
Magnitude 20.6 mag
Discoverer Kacper W. Wierzchos (Bok reflector at Kitt Peak)

* Pictures

* Orbital Elements

Epoch 2024 Oct. 17.0 TT = JDT 2460600.5
T 2024 Oct. 21.07503 TT                                 Rudenko
q   3.9302195            (2000.0)            P               Q
z  +0.0082093      Peri.  128.22472     -0.49494361     -0.70583007
 +/-0.0000005      Node    30.60044     -0.65847056     -0.07588622
e   0.9677355      Incl.   95.40025     +0.56696326     -0.70430476
>From 97 observations 2024 Apr. 7-Aug. 9, mean residual 0".7.

* Magnitudes Graph

        m1 = 10.5 + 5 log d + 10.0 log r

---------------------------------------------------------------------

The orbital elements are published on M.P.E.C. 2024-P125.
The magnitudes graphs are made with Comet for Windows.

---------------------------------------------------------------------

Copyright(C) Seiichi Yoshida (comet@aerith.net). All rights reserved.